sat.trackr.live / text

‹ back to catalog

STARLINK-30283

NORAD 57680 · 2023-124T

PAYLOAD ACTIVE UNKNOWN

§ Identity

Operator
Country
US
Launch date
2023-08-22
Launch site
AFWTR
Launch vehicle
Mass (kg)
RCS (m²)

Purposes: comms

External: N2YO · Heavens-Above · Gunter

§ Orbital elements

Epoch: 2026-05-24T21:39:35.993088Z

Period
94.11 min
Inclination
53.1601°
Eccentricity
0.0001196
Mean motion
15.30178884 rev/d
Perigee alt
474.5 km
Apogee alt
476.1 km
Semi-major
6,853.4 km
B*
-2.7519e-5
RAAN
212.9858°
Arg perigee
107.7345°
Mean anomaly
252.3786°
Rev number
15,523

§ Raw data

STARLINK-302831 57680U 23124T   26144.90249992 -.00001173  00000+0 -27519-4 0  99902 57680  53.1601 212.9858 0001196 107.7345 252.3786 15.30178884155237

JSON: /api/v1/satellites/57680 · /tle

For live sub-satellite position, see the globe view (requires WebGL).

§ Visibility from observer

Set your observer location to see the next 7 days of passes ≥ 10°. The values pass through the URL so the page stays shareable.

No JS? Fill the form by hand. The geolocation button needs JavaScript.